Flag for Finland Weather past 2 weeks in Kemi, Finland

Now
52 °F

Low clouds.


Feels Like: 51 °F
Forecast: 42 / 56 °F
Wind: 3 mph from North

Location: Kemi Airport

Current Time: Sep 18, 2014 at 8:53:44 AM

Latest Report: Sep 18, 2014 at 8:20 AM


Visibility: N/A

Pressure: 30.18 "Hg

Humidity: 88%

Dew point: 48 °F

Location of KemiLocation

Historic Weather in Kemi — Graph

°F

Kemi temperature yesterday

Maximum temperature yesterday: 59 °F (at 1:50 PM)
Minimum temperature yesterday: 37 °F (at 12:50 AM)
Average temperature yesterday: 50 °F

Past Weeks' High & Low Weather Summary

 TemperatureHumidityPressure
High64 °F (Sep 6, 3:20 PM)100% (Sep 5, 10:20 PM)30.48 "Hg (Sep 5, 10:20 PM)
Low30 °F (Sep 15, 4:20 AM)42% (Sep 12, 2:20 PM)29.86 "Hg (Sep 9, 5:20 PM)
Average54 °F85%30.13 "Hg
* Reported Sep 3 7:20 AM — Sep 18 7:20 AM, Kemi, Weather by CustomWeather, © 2014

Note: Actual official high and low records may vary slightly from our data, if they occured in-between our weather recording intervals... More about our weather records

Advertising

Kemi weather history for previous 24 hours

 ConditionsComfort  
Time TempWeatherWind HumidityBarometerVisibility
7:20 AM
Sep 18
50 °FLow clouds.1 mph100%30.18 "Hg6 mi
6:50 AM50 °FLow clouds.1 mph100%30.18 "Hg4 mi
6:20 AM50 °FLow clouds.3 mph100%30.18 "Hg4 mi
5:50 AM52 °FLow clouds.3 mph94%30.18 "Hg4 mi
5:20 AM52 °FLow clouds.3 mph94%30.18 "Hg4 mi
4:50 AM52 °FLow clouds.6 mph94%30.18 "Hg4 mi
4:20 AM52 °FLow clouds.3 mph94%30.18 "Hg6 mi
3:50 AM52 °FLow clouds.3 mph94%30.18 "Hg4 mi
3:20 AM52 °FLow clouds.6 mph94%30.18 "Hg3 mi
2:50 AM52 °FLow clouds.6 mph100%30.18 "Hg4 mi
2:20 AM52 °FLow clouds.5 mph100%30.18 "Hg5 mi
1:50 AM52 °FLow clouds.3 mph100%30.18 "Hg4 mi
1:20 AM52 °FLow clouds.2 mph100%30.18 "Hg4 mi
12:50 AM54 °FLow clouds.2 mph94%30.18 "Hg4 mi
12:20 AM54 °FLow clouds.No wind94%30.18 "Hg5 mi
11:50 PM
Sep 17
54 °FPassing clouds.No wind94%30.18 "HgN/A
11:20 PM54 °FLow clouds.No wind94%30.18 "Hg6 mi
10:50 PM54 °FLow clouds.2 mph94%30.18 "HgN/A
10:20 PM55 °FPassing clouds.5 mph88%30.18 "Hg5 mi
9:50 PM54 °FPassing clouds.2 mph94%30.18 "Hg5 mi
9:30 PM54 °FPassing clouds.6 mph94%30.18 "Hg5 mi
8:50 PM54 °FLow clouds.6 mph94%30.18 "Hg6 mi
8:20 PM55 °FLow clouds.7 mph88%30.18 "HgN/A
7:50 PM55 °FOvercast.6 mph88%30.18 "HgN/A
7:20 PM55 °FOvercast.8 mph88%30.18 "HgN/A
6:50 PM55 °FPartly sunny.5 mph88%30.18 "HgN/A
6:20 PM55 °FScattered clouds.7 mph88%30.18 "HgN/A
5:50 PM57 °FScattered clouds.8 mph82%30.18 "HgN/A
5:20 PM57 °FPartly sunny.8 mph88%30.18 "HgN/A
4:50 PM57 °FScattered clouds.7 mph88%30.21 "HgN/A
4:20 PM59 °FPassing clouds.8 mph82%30.21 "HgN/A
3:50 PM57 °FScattered clouds.9 mph88%30.21 "HgN/A
3:20 PM57 °FPartly sunny.10 mph82%30.21 "HgN/A
2:50 PM59 °FPassing clouds.8 mph82%30.21 "HgN/A
2:20 PM59 °FPartly sunny.8 mph82%30.24 "HgN/A
1:50 PM59 °FPartly sunny.9 mph82%30.24 "HgN/A
1:20 PM57 °FPartly sunny.8 mph88%30.24 "HgN/A
12:50 PM57 °FPartly sunny.7 mph94%30.24 "HgN/A
12:20 PM57 °FPartly sunny.9 mph88%30.24 "HgN/A
11:50 AM57 °FPartly sunny.7 mph94%30.24 "HgN/A
11:20 AM55 °FPartly sunny.5 mph100%30.24 "Hg4 mi
10:50 AM54 °FFog.5 mph100%30.27 "Hg3 mi
10:20 AM52 °FFog.2 mph100%30.27 "Hg3 mi
9:50 AM50 °FFog.2 mph100%30.27 "Hg2 mi
9:31 AM48 °FFog.2 mph100%30.27 "Hg2 mi
8:50 AM45 °FScattered clouds.No wind100%30.27 "Hg3 mi
8:20 AM45 °FFog.3 mph100%30.27 "Hg2 mi
Weather by CustomWeather, © 2014

See weather overviewHow to use our weather pages